Location: Unspecified
(50.0830°N, 0.0000°E)
Time: 06:42:23
(UTC+00:00)

N. Korean satellite - Pass Details

Date: 19 November 2019
Orbit: 456 x 506 km, 97.2° (Epoch: 05 December)

Event Time Altitude Azimuth Distance (km) Brightness Sun altitude
Rises 18:20:24 0° 219° (SW) 2,569 10.9 -20.4°
Reaches altitude 10° 18:24:03 10° 258° (WSW) 1,707 10.5 -21.0°
Maximum altitude 18:25:00 11° 273° (W) 1,661 10.4 -21.1°
Drops below altitude 10° 18:25:57 10° 288° (WNW) 1,716 10.3 -21.3°
Sets 18:29:40 0° 327° (NNW) 2,617 10.7 -21.9°
